Tracking 29059 objects as of 19-Jun-2024
HD Live streaming from Space Station
objects crossing your sky now

DELTA 1 DEB

Track DELTA 1 DEB now!
10-day predictions


NORAD ID: 9681
Int'l Code: 1975-004GC
Perigee: 718.5 km
Apogee: 797.0 km
Inclination: 98.1 °
Period: 99.8 minutes
Semi major axis: 7128 km
RCS: 0.0088 m2 (small)
Launch date: January 22, 1975
Source: United States (US)
Launch site: AIR FORCE WESTERN TEST RANGE (AFWTR)

Note: This is SATELLITE DEBRIS
Your satellite tracking list
Your tracking list is empty




NASA's NSSDC Master Catalog

Two Line Element Set (TLE):
1  9681U 75004GC  24171.23207912  .00000278  00000-0  94920-4 0  9996
2  9681  98.0559 262.9033 0055089 343.9842  15.9605 14.42383342539060
Source of the keplerian elements: AFSPC